POERUNWV Weather Reports


Display with metric or nautical units.
time (UTC)temp
F
wind
direction
speed
MPH
gust
MPH
rain 1hr
in
rain 24hr
in
rain mn
in
humidity
%
barometer
mb
20260505023043 59 0 0.0 2.0 0.00 0.00 0.00 59 1012.1
20260505021537 58 117 1.0 3.0 0.00 0.00 0.00 60 1012.1
20260505020035 57 105 1.0 3.0 0.00 0.00 0.00 61 1012.2
20260505014541 58 103 0.0 2.0 0.00 0.00 0.00 60 1012.2
20260505013036 58 0 0.0 2.0 0.00 0.00 0.00 60 1012.2
20260505011535 59 103 0.0 2.0 0.00 0.00 0.00 59 1012.1
20260505010031 59 0 0.0 2.0 0.00 0.00 0.00 58 1011.9
20260505004536 61 103 0.0 3.0 0.00 0.00 0.00 55 1011.8
20260505003035 62 82 0.0 5.0 0.00 0.00 0.00 54 1011.8
20260505001546 62 33 1.0 3.0 0.00 0.00 0.00 53 1011.9
20260505000041 63 171 1.0 8.0 0.00 0.00 0.00 52 1011.8
20260504234533 63 172 0.0 9.0 0.00 0.00 0.00 51 1011.7
20260504233036 64 167 1.0 8.0 0.00 0.00 0.00 50 1011.6
20260504231553 64 0 0.0 6.0 0.00 0.00 0.00 50 1011.5
20260504230035 64 0 0.0 8.0 0.00 0.00 0.00 49 1011.3
20260504224538 65 62 4.0 15.0 0.00 0.00 0.00 48 1011.4
20260504223033 65 159 2.0 5.0 0.00 0.00 0.00 51 1011.5
20260504221535 64 0 0.0 3.0 0.00 0.00 0.00 54 1011.6
20260504220036 64 0 0.0 6.0 0.00 0.00 0.00 53 1011.6
20260504214534 64 182 0.0 6.0 0.00 0.00 0.00 53 1011.6
20260504213034 64 0 0.0 3.0 0.00 0.00 0.00 52 1011.6
20260504211539 64 0 1.0 7.0 0.00 0.00 0.00 52 1011.6
20260504210054 64 336 1.0 8.0 0.00 0.00 0.00 51 1011.6
20260504204541 65 292 1.0 12.0 0.00 0.00 0.00 48 1011.4
20260504203037 66 345 1.0 9.0 0.00 0.00 0.00 45 1011.4
20260504201535 67 307 2.0 8.0 0.00 0.00 0.00 44 1011.3
20260504200036 67 321 3.0 10.0 0.00 0.00 0.00 42 1011.1
20260504194550 67 257 1.0 12.0 0.00 0.00 0.00 44 1011.2
20260504193034 67 312 2.0 10.0 0.00 0.00 0.00 44 1011.5
20260504191543 68 207 4.0 12.0 0.00 0.00 0.00 43 1011.6
20260504190043 68 80 2.0 11.0 0.00 0.00 0.00 43 1011.7
20260504184539 67 36 2.0 8.0 0.00 0.00 0.00 46 1012.0
20260504183037 66 64 5.0 11.0 0.00 0.00 0.00 46 1011.8
20260504181543 66 59 2.0 14.0 0.00 0.00 0.00 51 1012.1
20260504180055 63 235 5.0 16.0 0.00 0.00 0.00 52 1012.4
20260504174535 63 114 5.0 14.0 0.00 0.00 0.00 52 1012.4
20260504173036 61 340 1.0 8.0 0.00 0.00 0.00 56 1012.8
20260504171535 61 291 4.0 11.0 0.00 0.00 0.00 55 1012.8
20260504081537 46 106 3.0 11.0 0.00 0.00 0.00 59 1014.7
20260504044536 47 165 1.0 4.0 0.00 0.00 0.00 47 1015.4
20260504043034 47 123 1.0 4.0 0.00 0.00 0.00 47 1015.3
20260504041536 47 145 2.0 4.0 0.00 0.00 0.00 47 1015.4
20260504040043 47 98 1.0 3.0 0.00 0.00 0.00 47 1015.4
20260504034547 47 95 1.0 3.0 0.00 0.00 0.00 47 1015.5
20260504033036 47 180 0.0 4.0 0.00 0.00 0.00 46 1015.6
20260504031545 47 73 1.0 3.0 0.00 0.00 0.00 46 1015.5
20260504030041 47 100 0.0 3.0 0.00 0.00 0.00 45 1015.6
20260504024542 47 33 0.0 2.0 0.00 0.00 0.00 45 1015.6